User: anonymous   Login
Location: Unspecified
(0.0000°N, 0.0000°E)
Time: 09:27:25
(UTC+00:00)
Language:

TDRS 3 - Orbit

View from above orbital plane
View from above orbital plane
View from above satellite
View from above satellite

Ground track
Ground track

The orbit data is extracted from the following two-line orbital elements,

1 19548U 88091B   18018.36299188 -.00000295 +00000-0 +00000-0 0  9994
2 19548 014.4449 005.7818 0038911 310.6489 229.6038 01.00279213094566
Epoch (UTC): 18 January 2018 08:42:42
Eccentricity: 0.0038911
inclination: 14.4449°
perigee height: 35620 km
apogee height: 35948 km
right ascension of ascending node: 5.7818°
argument of perigee: 310.6489°
revolutions per day: 1.00279213
mean anomaly at epoch: 229.6038°
orbit number at epoch: 9456

The dashed part of the orbit path shows where the satellite is in the earth's shadow,  

DLR